CZ-2D R/B, 58074

Orbit data source: Space-Track

CZ-2D R/B, 58074 is space debris in SSO originally from a launch on Sun, 15 Oct 2023 UTC launched from the Jiuquan Satellite Launch Center, China (JSC). Debris objects in space refer to the collection of defunct objects orbiting the Earth. Examples of debris include non-operational satellites, rocket bodies, and fragments generated from explosions, collisions, or faulty payload assembly.

Loading next visibility...
Identifier
58074, 2023-159B
Orbit
SSO
Country
Flag of CNCN / PRC
Related business
Manufacturer
BWYIC
Mission
Spacecraft
Bus & Motor
CZ-2 STAGE 2, Unknown motor
Mass
4,006 kg wet, 4,006 kg dry
Launch date (UTC)
2023-10-15 (3 years ago)
Launch vehicle
Unknown
Launch site
Jiuquan Satellite Launch Center, China (JSC)
Object type
Payload
Rocket body
Debris
Shape & HBR
Cyl, 4.5 m
Radar Cross Section
27.824 m², Large (>1 m²)

Expand to show TLE details & history
Last TLE update: 2 days ago

TLE from 2 days ago
0 CZ-2D R/B
1 58074U 23159B   26171.44363955  .00000065  00000-0  40465-4 0  9994
2 58074  98.4562 184.1230 0097784 280.0271  78.9888 14.29288829139873
Epoch: 2026-06-20T10:38Z
TLE epoch observation values (Epoch: 2026-06-20T10:38:50.457Z)
Latitude
-0.00008°
Longitude
115.75459°
Altitude
784.309 km
Speed
7.468 km/s
True Right ascension
12h 16m 29s
True Declination
0° 00' 00"
Sunlit
Object was in daylight at epoch
Visualization orbit readout
Latitude
Unknown
Longitude
Unknown
Altitude
Unknown
Speed
Unknown
Apparent Right ascension
Unknown
Apparent Declination
Unknown
Sunlit
N/A
Visualization observer readout
Local Sidereal Time
00:25:04
Azimuth
Unknown
Elevation
Unknown
Doppler factor
Unknown
Orbital elements
Apogee altitude
861.348 km
Perigee altitude
721.138 km
Semi-major axis
7,169.38 km
Eccentricity
0.00978
Inclination
98.4562°
RAAN
184.123°
Arg. of periapsis
280.0271°
True anomaly
80.0912°
Mean anomaly
78.9888°
Eccentric anomaly
79.53975°
Mean motion
3.57537 °/min
Orbital period
100.69 mins
BSTAR
0.000040465
Loading maneuver chart data...
Computing Atmospheric mass density...
Loading historical data...
Loading historical data...
Loading historical data...
Loading historical data...
Loading historical data...
Loading historical data...
Loading historical data...
Other satellites on launch #159 in the year 2023 (2023-10-15 UTC)

Documentation

Showing up to 5 results
|